Satellite: FO-70
Catalog number: 37380
Epoch time:      11298.43402580
Element set:    0008
Inclination:      071.9713 deg
RA of node:       112.3243 deg
Eccentricity:    0.0016683
Arg of perigee:   031.7370 deg
Mean anomaly:     328.4848 deg
Mean motion:   14.76473112 rev/day
Decay rate:      1.549e-05 rev/day^2
Epoch rev:           00118
Checksum:              283

/EX
SB KEPS @ AMSAT  $ORB11300.W
Orbital Elements  11300.WEATHER

HR AMSAT ORBITAL ELEMENTS FOR WEATHER SATELLITES
FROM WA5QGD FORT WORTH,TX October 27, 2011
Send Subscribe/unsubscribe to KEPS at http://www.amsat.org/mailman/listinfo/kep
BID: ORB11300.W
TO ALL RADIO AMATEURS BT

Satellite: NOAA-10
Catalog number: 16969
Epoch time:      11300.68687433
Element set:     682
Inclination:      098.6089 deg
RA of node:       328.6015 deg
Eccentricity:    0.0011931
Arg of perigee:   194.4153 deg
Mean anomaly:     165.6688 deg
Mean motion:   14.27490225 rev/day
Decay rate:       2.81e-06 rev/day^2
Epoch rev:           30655
Checksum:              321

Satellite: NOAA-11
Catalog number: 19531
Epoch time:      11300.29584479
Element set:     679
Inclination:      098.7484 deg
RA of node:       025.2274 deg
Eccentricity:    0.0011215
Arg of perigee:   167.8466 deg
Mean anomaly:     192.3004 deg
Mean motion:   14.14932367 rev/day
Decay rate:       2.88e-06 rev/day^2
Epoch rev:           19143
Checksum:              311

Satellite: NOAA-12
Catalog number: 21263
Epoch time:      11300.87072987
Element set:     176
Inclination:      098.7460 deg
RA of node:       318.4443 deg
Eccentricity:    0.0013964
Arg of perigee:   155.5228 deg
Mean anomaly:     204.6617 deg
Mean motion:   14.25448498 rev/day
Decay rate:       2.00e-06 rev/day^2
Epoch rev:            6331
Checksum:              296

Satellite: MET-3/5
Catalog number: 21655
Epoch time:      11300.54692894
Element set:     244
Inclination:      082.5569 deg
RA of node:       317.2595 deg
Eccentricity:    0.0013296
Arg of perigee:   180.6498 deg
Mean anomaly:     179.4624 deg
Mean motion:   13.17034530 rev/day
Decay rate:        5.1e-07 rev/day^2
Epoch rev:           97114
Checksum:              312

Satellite: MET-2/21
Catalog number: 22782
Epoch time:      11300.73339274
Element set:     240
Inclination:      082.5498 deg
RA of node:       217.7114 deg
Eccentricity:    0.0024068
Arg of perigee:   087.0161 deg
Mean anomaly:     273.3779 deg
Mean motion:   13.83666970 rev/day
Decay rate:        8.6e-07 rev/day^2
Epoch rev:           91688
Checksum:              321

Satellite: OKEAN-4
Catalog number: 23317
Epoch time:      11300.19562537
Element set:     704
Inclination:      082.5380 deg
RA of node:       249.8518 deg
Eccentricity:    0.0023549
Arg of perigee:   046.7788 deg
Mean anomaly:     313.5389 deg
Mean motion:   14.83260117 rev/day
Decay rate:      2.566e-05 rev/day^2
Epoch rev:           92011
Checksum:              306

Satellite: NOAA-14
Catalog number: 23455
Epoch time:      11300.86972550
Element set:     656
Inclination:      098.8455 deg
RA of node:       022.1365 deg
Eccentricity:    0.0008618
Arg of perigee:   263.2844 deg
Mean anomaly:     096.7347 deg
Mean motion:   14.13842177 rev/day
Decay rate:        4.1e-07 rev/day^2
Epoch rev:           86782
Checksum:              319

Satellite: NOAA-15
Catalog number: 25338
Epoch time:      11300.52608191
Element set:     997
Inclination:      098.6682 deg
RA of node:       284.9494 deg
Eccentricity:    0.0011576
Arg of perigee:   069.6318 deg
Mean anomaly:     290.6099 deg
Mean motion:   14.24970523 rev/day
Decay rate:       2.77e-06 rev/day^2
Epoch rev:           69957
Checksum:              355

Satellite: RESURS
Catalog number: 25394
Epoch time:      11299.90233033
Element set:     926
Inclination:      098.3054 deg
RA of node:       295.7122 deg
Eccentricity:    0.0000907
Arg of perigee:   166.0070 deg
Mean anomaly:     194.1136 deg
Mean motion:   14.24247782 rev/day
Decay rate:       1.05e-06 rev/day^2
Epoch rev:           69105
Checksum:              280

Satellite: FENGYUN1
Catalog number: 25730
Epoch time:      11300.84383201
Element set:     455
Inclination:      098.8279 deg
RA of node:       259.2084 deg
Eccentricity:    0.0023739
Arg of perigee:   308.6953 deg
Mean anomaly:     051.2099 deg
Mean motion:   14.08966703 rev/day
Decay rate:      2.965e-05 rev/day^2
Epoch rev:           64174
Checksum:              319

Satellite: OKEAN-0
Catalog number: 25860
Epoch time:      11300.00741695
Element set:     449
Inclination:      097.9025 deg
RA of node:       262.9588 deg
Eccentricity:    0.0000705
Arg of perigee:   036.3613 deg
Mean anomaly:     323.7644 deg
Mean motion:   14.73898621 rev/day
Decay rate:      1.076e-05 rev/day^2
Epoch rev:           66007
Checksum:              301

Satellite: NOAA-16
Catalog number: 26536
Epoch time:      11300.52641768
Element set:     479
Inclination:      099.1280 deg
RA of node:       333.6790 deg
Eccentricity:    0.0010810
Arg of perigee:   024.9635 deg
Mean anomaly:     335.2082 deg
Mean motion:   14.12658463 rev/day
Decay rate:       1.79e-06 rev/day^2
Epoch rev:           57204
Checksum:              300

